Regional Weather Roundup
Issued by NWS

Home | Current Version | Previous Version | Graphics & Text | Print | Product List | Glossary On
Versions: 1 2 3 4 5 6 7 8 9 10 11 12 13 14 15 16 17 18 19 20 21 22 23 24 25 26 27 28 29 30 31 32 33 34 35 36 37 38 39 40 41 42 43 44 45 46 47 48 49 50
000
ASUS43 KLMK 031602
RWRKY
KENTUCKY REGIONAL WEATHER ROUNDUP
NATIONAL WEATHER SERVICE LOUISVILLE KY
1200 PM EDT TUE MAY 03 2016

NOTE "FAIR" INDICATES FEW OR NO CLOUDS BELOW 12,000 FEET
WITH NO SIGNIFICANT WEATHER AND/OR OBSTRUCTIONS TO VISIBILITY.

KYZ001>023-026-027-061>063-070>075-031700-
WESTERN AND SOUTH CENTRAL KENTUCKY

CITY           SKY/WX    TMP DP  RH WIND       PRES   REMARKS
PADUCAH        CLOUDY    64  49  57 N8        30.01F
HENDERSON      PTSUNNY   61  43  51 NW9       29.99S
OWENSBORO      MOSUNNY   62  45  53 NW16      29.99S
HOPKINSVILLE   NOT AVBL
BOWLING GREEN  CLOUDY    60  49  66 W7        29.99R
GLASGOW        NOT AVBL
$$

KYZ024-025-028>034-038-045-046-053-031700-
NORTH CENTRAL KENTUCKY

CITY           SKY/WX    TMP DP  RH WIND       PRES   REMARKS
LOUISVILLE/SDF PTSUNNY   61  44  53 VRB6      29.94F
LOUISVILLE/LOU PTSUNNY   61  45  55 NW10      29.95S
FORT KNOX      NOT AVBL
$$

KYZ035>037-039>044-047>052-055>060-089>105-031700-
NORTHEAST KENTUCKY

CITY           SKY/WX    TMP DP  RH WIND       PRES   REMARKS
LEXINGTON      CLOUDY    59  47  64 W10       29.93S
COVINGTON      CLOUDY    57  51  80 NW3       29.91S
FRANKFORT      CLOUDY    58  46  64 W12       29.93R
$$

KYZ054-064>069-076>088-106>120-031700-
SOUTHEAST KENTUCKY

CITY           SKY/WX    TMP DP  RH WIND       PRES   REMARKS
JACKSON        CLOUDY    58  53  84 VRB5      29.91S
LONDON         CLOUDY    60  50  69 W10       29.94R
SOMERSET       NOT AVBL
MIDDLESBORO    PTSUNNY   63  54  71 NW12      29.94R
MONTICELLO     CLOUDY    60  50  69 W9G18     29.97S
$$




USA.gov is the U.S. government's official web portal to all federal, state and local government web resources and services.